DECAYED

OBJECT H, 43838 (Decayed)

Orbit data source: Space-Track

You're viewing an Uncataloged Satellite

Recently launched and/or uncataloged satellites may have evolving metadata. Metadata may include but not limited to: Owner, Maufacturer, Bus, Motor, and Mission.

OBJECT H, 43838 was a satellite in LEO that was launched on Fri, 07 Dec 2018 UTC via a CHANG ZHENG 2D launch vehicle from the Jiuquan Satellite Launch Center, China (JSC). Unknown objects in Earth's orbit typically refer to objects detected orbiting the Earth but have not yet been identified or cataloged. These objects could be anything from previously untracked satellites, spent rocket stages, debris from satellite collisions, or even natural meteoroids temporarily captured by Earth's gravity. This object's orbit decayed before it could be identified.

Not visible in the next 10 days
OBJECT H details
Identifier
43838, 2018-102H
Orbit
Decayed
Last TLE update4 months ago
Origin
Flag of TBDBTWK/HUAMI (TBD)
ManufacturerJiutian
MissionDecayed Commercial Communications
Bus & MotorCUBESAT 6U, Unknown motor
Mass10 kg wet, 10 kg dry
Launch date (UTC)
2018-12-07 (6 years ago)
Launch vehicle
CHANG ZHENG 2D
Launch site
Jiuquan Satellite Launch Center, China (JSC)
Object typeUnknown
Shape & HBRBox, 0.3 m
Radar Cross Section0.035 m², Medium (>0.1 m² and < 1m²)

Expand to show TLE details & history

TLE from 4 months ago
0 OBJECT H
1 43838U 18102H   24254.67329662  .32543562  25275-5  73064-3 0  9995
2 43838  97.3060 341.5296 0014505 255.1041 242.6528 16.45339038319066
Epoch: 2024-09-10T16:09Z
Definitive object data (Epoch: 2024-09-10T16:09:32.827Z)
Latitude42.06573°
Longitude-64.43626°
Altitude162.323 km
Speed7.81 km/s
True Right ascension11h 12m 32s
True Declination41° 52' 45"
Sunlit
Object was in daylight at TLE epoch
Visualization observer readout
Observer readout values are unavailable because the object's trajectory could not be propagated. This is usually caused when the trajectory data is faulty or the object's orbit has decayed.
Visualization observer readout
Observer readout values are unavailable because the object's trajectory could not be propagated. This is usually caused when the trajectory data is faulty or the object's orbit has decayed.
Orbital elements
Apogee altitude157.902 km
Perigee altitude138.968 km
Semi-major axis6,526.572 km
Eccentricity0.0014505
Inclination97.306°
RAAN341.5296°
Arg. of periapsis255.1041°
True anomaly242.50528°
Mean anomaly242.6528°
Eccentric anomaly242.57903°
Mean motion4.11638 °/min
BSTAR0.00073064
Orbital period87.46 mins
Loading maneuver chart data...
Loading historical data...
Loading historical data...
Loading historical data...
Loading historical data...
Loading historical data...
Loading historical data...
Loading historical data...

OBJECT H Visibility forecast

Observer location: undefined°, undefined

This satellite is decayed
Span
Click to sort rows by Start time (UTC) header in descending order
Start Az.
Max El. time (UTC)
Max El. Az.
Max El.
End time (UTC)
End Az.
|